Orbital Elements
Epoch 2022 Jan. 21.0 TT = JDT 2459600.5
T 2022 June 7.89266 TT Rudenko
q 1.2476882 (2000.0) P Q
z -0.0001600 Peri. 263.59197 +0.39590317 -0.68871323
+/-0.0000106 Node 223.23115 +0.11365595 -0.61960936
e 1.0001996 Incl. 117.52754 -0.91123159 -0.37650807
From 183 observations 2021 Oct. 2-2022 Feb. 25, mean residual 0".7.
|